Regional Weather Roundup
Issued by NWS

Home | Current Version | Previous Version | Text Only | Print | Product List | Glossary On
Versions: 1 2 3 4 5 6 7 8 9 10 11 12 13 14 15 16 17 18 19 20 21 22 23 24 25 26 27 28 29 30 31 32 33 34 35 36 37 38 39 40 41 42 43 44 45 46 47 48 49 50
000
ASUS45 KBOI 302110
RWRID

IDAHO REGIONAL WEATHER ROUNDUP
NATIONAL WEATHER SERVICE BOISE ID
300 PM MDT SAT APR 30 2016

NOTE: "FAIR" INDICATES FEW OR NO CLOUDS BELOW 12000 FEET
WITH NO SIGNIFICANT WEATHER AND/OR OBSTRUCTIONS TO VISIBILITY

IDZ012-014-302200-
SOUTHWEST IDAHO


CITY           SKY/WX    TMP DP  RH WIND       PRES   REMARKS
BOISE          SUNNY     68  36  30 NW22G30   30.01S
CALDWELL       SUNNY     67  39  35 NW18G24   30.04F
MOUNTAIN HOME  PTSUNNY   66  35  31 W9G20     30.02S
$$

IDZ016-017-302200-
SOUTHCENTRAL IDAHO


CITY           SKY/WX    TMP DP  RH WIND       PRES   REMARKS
BURLEY         CLOUDY    53  39  59 N6        30.04S
JEROME         CLOUDY    56  35  45 VRB6      30.05F
TWIN FALLS     CLOUDY    55  38  52 W7        30.05F
$$

IDZ019>023-302200-
SOUTHEAST IDAHO


CITY           SKY/WX    TMP DP  RH WIND       PRES   REMARKS
IDAHO FALLS    PTSUNNY   60  30  32 N15G24    30.01S
POCATELLO      CLOUDY    56  36  47 N12       30.03S
REXBURG        CLOUDY    58  30  34 N9        30.01S
$$

IDZ006-010-011-018-031-032-302200-
CENTRAL IDAHO MOUNTAINS


CITY           SKY/WX    TMP DP  RH WIND       PRES   REMARKS
MCCALL         PTSUNNY   52  31  44 N15G23    30.10S
HAILEY         PTSUNNY   52  37  58 SE7       30.06S
STANLEY          N/A     50  25  37 VRB6      30.09S
SALMON         CLOUDY    52  30  43 CALM      30.11F
CHALLIS        CLOUDY    52  31  44 NE15      30.09R
$$

IDZ002-004-006-007-026-302200-
NORTHERN IDAHO


CITY           SKY/WX    TMP DP  RH WIND       PRES   REMARKS
LEWISTON       MOSUNNY   60  45  57 W10       30.22S
LOWELL           N/A     61  41  47 S7        30.17S
COEUR D`ALENE  PTSUNNY   63  41  45 W3        30.18F
MULLAN PASS    CLOUDY    41  32  70 VRB3      30.23R
$$



USA.gov is the U.S. government's official web portal to all federal, state and local government web resources and services.